Meteo pe oră la Alle

Astăzi, 22 Ianuarie, Vineri

Timp Temperatura Precipitaţii Vânt Presiune Umiditate
00:00 +2°C° 2.4 mm 5 m/s 695 mmHg 93%
01:00 +2°C° 0.5 mm 5 m/s 694 mmHg 91%
02:00 +2°C° 0.5 mm 5 m/s 694 mmHg 89%
03:00 +2°C° 0.5 mm 5 m/s 694 mmHg 87%
04:00 +3°C° 0.1 mm 5 m/s 693 mmHg 87%
05:00 +3°C° 0.1 mm 5 m/s 693 mmHg 88%
06:00 +3°C° 0.1 mm 5 m/s 693 mmHg 88%
07:00 +3°C° 0.1 mm 5 m/s 693 mmHg 87%
08:00 +4°C° 0.1 mm 4 m/s 693 mmHg 85%
09:00 +5°C° 0.1 mm 3 m/s 692 mmHg 84%
10:00 +7°C° 0 mm 3 m/s 692 mmHg 82%
11:00 +8°C° 0 mm 3 m/s 692 mmHg 79%
12:00 +9°C° 0 mm 3 m/s 691 mmHg 76%
13:00 +8°C° 0.3 mm 2 m/s 691 mmHg 82%
14:00 +8°C° 0.3 mm 1 m/s 690 mmHg 88%
15:00 +6°C° 0.3 mm 1 m/s 689 mmHg 94%
16:00 +6°C° 0.5 mm 1 m/s 690 mmHg 94%
17:00 +6°C° 0.5 mm 1 m/s 690 mmHg 95%
18:00 +5°C° 0.5 mm 1 m/s 690 mmHg 96%
19:00 +4°C° 1.4 mm 2 m/s 691 mmHg 96%
20:00 +3°C° 1.4 mm 2 m/s 691 mmHg 97%
21:00 +2°C° 1.4 mm 3 m/s 692 mmHg 97%
22:00 +1°C° 1.4 mm 3 m/s 692 mmHg 97%
23:00 -1°C° 1.4 mm 4 m/s 693 mmHg 96%

Mâine, 23 Ianuarie, Sâmbătă

Timp Temperatura Precipitaţii Vânt Presiune Umiditate
00:00 -2°C° 1.4 mm 5 m/s 693 mmHg 96%
01:00 -2°C° 0.5 mm 4 m/s 694 mmHg 96%
02:00 -2°C° 0.5 mm 4 m/s 694 mmHg 96%
03:00 0°C° 0.5 mm 3 m/s 695 mmHg 97%
04:00 -1°C° 0.1 mm 3 m/s 695 mmHg 95%
05:00 -1°C° 0.1 mm 2 m/s 695 mmHg 94%
06:00 -1°C° 0.1 mm 2 m/s 695 mmHg 92%
07:00 -1°C° 0 mm 2 m/s 695 mmHg 91%
08:00 -1°C° 0 mm 2 m/s 694 mmHg 89%
09:00 +1°C° 0 mm 2 m/s 694 mmHg 88%
10:00 +1°C° 0 mm 2 m/s 694 mmHg 86%
11:00 +2°C° 0 mm 2 m/s 694 mmHg 83%
12:00 +3°C° 0 mm 2 m/s 693 mmHg 81%
13:00 +3°C° 0 mm 2 m/s 693 mmHg 83%
14:00 +4°C° 0 mm 1 m/s 692 mmHg 84%
15:00 +4°C° 0 mm 1 m/s 692 mmHg 85%
16:00 +3°C° 0.1 mm 1 m/s 692 mmHg 88%
17:00 +2°C° 0.1 mm 1 m/s 692 mmHg 91%
18:00 +1°C° 0.1 mm 1 m/s 692 mmHg 93%
19:00 +1°C° 0.3 mm 1 m/s 693 mmHg 94%
20:00 +1°C° 0.3 mm 1 m/s 693 mmHg 95%
21:00 +1°C° 0.3 mm 1 m/s 693 mmHg 96%
22:00 -1°C° 0.4 mm 3 m/s 693 mmHg 96%
23:00 -2°C° 0.4 mm 4 m/s 694 mmHg 96%

Poimâine, 24 Ianuarie, Duminică

Timp Temperatura Precipitaţii Vânt Presiune Umiditate
00:00 -4°C° 0.4 mm 6 m/s 694 mmHg 96%
01:00 -4°C° 0.3 mm 5 m/s 694 mmHg 95%
02:00 -3°C° 0.3 mm 4 m/s 694 mmHg 95%
03:00 -3°C° 0.3 mm 4 m/s 695 mmHg 95%
04:00 -4°C° 0.2 mm 4 m/s 695 mmHg 95%
05:00 -4°C° 0.2 mm 3 m/s 696 mmHg 95%
06:00 -4°C° 0.2 mm 3 m/s 696 mmHg 95%
07:00 -4°C° 0 mm 3 m/s 697 mmHg 93%
08:00 -3°C° 0 mm 2 m/s 697 mmHg 91%
09:00 -3°C° 0 mm 2 m/s 697 mmHg 90%
10:00 -2°C° 0 mm 2 m/s 697 mmHg 85%
11:00 -1°C° 0 mm 2 m/s 697 mmHg 80%
12:00 +2°C° 0 mm 1 m/s 696 mmHg 75%
13:00 +2°C° 0 mm 1 m/s 696 mmHg 78%
14:00 +2°C° 0 mm 1 m/s 695 mmHg 81%
15:00 +1°C° 0 mm 1 m/s 695 mmHg 85%
16:00 -1°C° 0.1 mm 2 m/s 695 mmHg 87%
17:00 -2°C° 0.1 mm 2 m/s 695 mmHg 89%
18:00 -2°C° 0.1 mm 3 m/s 696 mmHg 92%
19:00 -2°C° 0.5 mm 3 m/s 696 mmHg 93%
20:00 -4°C° 0.5 mm 3 m/s 696 mmHg 94%
21:00 -4°C° 0.5 mm 4 m/s 696 mmHg 95%
22:00 -4°C° 0.8 mm 4 m/s 696 mmHg 95%
23:00 -4°C° 0.8 mm 4 m/s 696 mmHg 95%

25 Ianuarie, Luni

Timp Temperatura Precipitaţii Vânt Presiune Umiditate
00:00 -4°C° 0.8 mm 4 m/s 697 mmHg 96%
01:00 -4°C° 0.4 mm 4 m/s 697 mmHg 95%
02:00 -6°C° 0.4 mm 5 m/s 698 mmHg 95%
03:00 -6°C° 0.4 mm 5 m/s 698 mmHg 94%
04:00 -6°C° 0.3 mm 5 m/s 699 mmHg 94%
05:00 -6°C° 0.3 mm 5 m/s 700 mmHg 94%
06:00 -6°C° 0.3 mm 5 m/s 701 mmHg 93%
07:00 -6°C° 0.2 mm 5 m/s 701 mmHg 93%
08:00 -6°C° 0.2 mm 5 m/s 702 mmHg 92%
09:00 -6°C° 0.2 mm 5 m/s 703 mmHg 91%
10:00 -5°C° 0 mm 5 m/s 703 mmHg 89%
11:00 -5°C° 0 mm 5 m/s 704 mmHg 86%
12:00 -4°C° 0 mm 5 m/s 704 mmHg 84%
13:00 -4°C° 0.3 mm 5 m/s 704 mmHg 86%
14:00 -4°C° 0.3 mm 5 m/s 704 mmHg 88%
15:00 -4°C° 0.3 mm 6 m/s 704 mmHg 90%
16:00 -4°C° 0.2 mm 6 m/s 705 mmHg 91%
17:00 -4°C° 0.2 mm 5 m/s 705 mmHg 92%
18:00 -5°C° 0.2 mm 5 m/s 705 mmHg 93%
19:00 -5°C° 0.2 mm 5 m/s 706 mmHg 94%
20:00 -5°C° 0.2 mm 5 m/s 706 mmHg 95%
21:00 -4°C° 0.2 mm 4 m/s 707 mmHg 96%
22:00 -4°C° 0.3 mm 4 m/s 707 mmHg 96%
23:00 -4°C° 0.3 mm 4 m/s 707 mmHg 95%

26 Ianuarie, Marţi

Timp Temperatura Precipitaţii Vânt Presiune Umiditate
00:00 -4°C° 0.3 mm 3 m/s 707 mmHg 95%
01:00 -4°C° 0.2 mm 3 m/s 707 mmHg 95%
02:00 -4°C° 0.2 mm 3 m/s 707 mmHg 95%
03:00 -4°C° 0.2 mm 3 m/s 707 mmHg 95%
04:00 -4°C° 0.3 mm 3 m/s 708 mmHg 96%
05:00 -4°C° 0.3 mm 3 m/s 708 mmHg 96%
06:00 -4°C° 0.3 mm 3 m/s 708 mmHg 97%
07:00 -4°C° 0.1 mm 3 m/s 708 mmHg 96%
08:00 -2°C° 0.1 mm 3 m/s 709 mmHg 94%
09:00 -2°C° 0.1 mm 3 m/s 709 mmHg 93%
10:00 -2°C° 0 mm 3 m/s 709 mmHg 93%
11:00 -1°C° 0 mm 2 m/s 709 mmHg 93%
12:00 -1°C° 0 mm 2 m/s 709 mmHg 94%
13:00 -1°C° 0 mm 2 m/s 709 mmHg 94%
14:00 -1°C° 0 mm 2 m/s 708 mmHg 94%
15:00 -1°C° 0 mm 2 m/s 708 mmHg 94%
16:00 -1°C° 0 mm 2 m/s 708 mmHg 94%
17:00 -1°C° 0 mm 2 m/s 708 mmHg 93%
18:00 -2°C° 0 mm 2 m/s 708 mmHg 93%
19:00 -2°C° 0.3 mm 2 m/s 708 mmHg 94%
20:00 -2°C° 0.3 mm 2 m/s 707 mmHg 95%
21:00 -2°C° 0.3 mm 2 m/s 707 mmHg 96%
22:00 -1°C° 0.3 mm 3 m/s 707 mmHg 96%
23:00 -1°C° 0.3 mm 3 m/s 707 mmHg 97%

27 Ianuarie, Miercuri

Timp Temperatura Precipitaţii Vânt Presiune Umiditate
00:00 -2°C° 0.3 mm 4 m/s 706 mmHg 97%
01:00 -1°C° 0.2 mm 4 m/s 706 mmHg 97%
02:00 -1°C° 0.2 mm 4 m/s 706 mmHg 98%
03:00 0°C° 0.2 mm 4 m/s 705 mmHg 98%
04:00 0°C° 0.1 mm 5 m/s 706 mmHg 98%
05:00 0°C° 0.1 mm 5 m/s 706 mmHg 98%
06:00 0°C° 0.1 mm 5 m/s 706 mmHg 98%
07:00 0°C° 0.1 mm 4 m/s 707 mmHg 98%
08:00 0°C° 0.1 mm 4 m/s 708 mmHg 98%
09:00 +1°C° 0.1 mm 3 m/s 708 mmHg 98%
10:00 +1°C° 0 mm 4 m/s 709 mmHg 98%
11:00 +1°C° 0 mm 4 m/s 709 mmHg 97%
12:00 +1°C° 0 mm 4 m/s 709 mmHg 96%
13:00 +1°C° 0 mm 4 m/s 710 mmHg 96%
14:00 +1°C° 0 mm 4 m/s 710 mmHg 95%
15:00 +2°C° 0 mm 3 m/s 710 mmHg 94%
16:00 +2°C° 0 mm 3 m/s 710 mmHg 94%
17:00 +1°C° 0 mm 3 m/s 711 mmHg 94%
18:00 +2°C° 0 mm 2 m/s 711 mmHg 93%
19:00 +2°C° 0 mm 2 m/s 711 mmHg 93%
20:00 +1°C° 0 mm 2 m/s 711 mmHg 92%
21:00 +1°C° 0 mm 2 m/s 711 mmHg 91%
22:00 +1°C° 0 mm 2 m/s 710 mmHg 91%
23:00 +1°C° 0 mm 2 m/s 709 mmHg 90%
Arată mai mult

Formular de consimțământ

Meteoprog și furnizorii noștri de servicii pot stoca și accesa date personale, precum cookies, identificatori de dispozitiv sau alte tehnologii similare pe dispozitivul dumneavoastră și procesa astfel de date pentru a personaliza conținutul și reclamele, dar și pentru a oferi caracteristici de social media și pentru a analiza traficul.

  • Stocarea și/sau accesarea informațiilor pe dispozitivul dumneavoastră

    Cookies, identificatori de dispozitiv sau alte informații pot fi stocate sau accesate pe dispozitiv în scopurile indicate mai sus.

  • Reclame și conținut personalizat, evaluarea reclamelor și a conținutului, informații despre audiențe și dezvoltarea produselor

    Reclamele și conținutul pot fi personalizate pe baza unui profil. Pot fi adăugate date suplimentare pentru a personaliza mai bine reclamele și conținutul. Performanța reclamelor și conținutului poate fi măsurată. Pot fi obținute informații despre utilizatorii care au văzut reclamele și conținutul. Aceste date pot fi utilizate pentru a dezvolta sau îmbunătăți experiența utilizatorilor, sistemele și software-ul.

Dând clic pe ‘Sunt de acord’, permiteți utilizarea cookie-urilor menționate, a identificatorilor de dispozitiv, balizelor web sau altor tehnologii similare. Setările pot fi modificate din browser-ul dispozitivului dumneavoastră.

În anumite scopuri, interesele legitime pot prima asupra consimțământului. Puteți citi mai multe informații în acest sens în Politica privind Confidențialitatea Datelor și Cookie.